This demonstration page uses our WeatherBlox Daily Observations layout. Learn more.

Hourly Observations for December 2, 2015

Temp ( °F °C ) Dew Point ( °F °C ) Humidity (%) Winds ( mph kmh ) Pressure ( in mb ) Visibility ( mi km ) Precip ( " mm )
12:15 am 00:15 Cloudy 31 -0.5 26 -3.2 82 82 NW 14 22 30.03 1017 10 16.0934 0 0
12:35 am 00:35 Cloudy 31 -0.3 26 -3.1 82 82 NW 12 19 30.03 1017 10 16.0934 0 0
12:55 am 00:55 Cloudy 31 -0.3 26 -3.1 82 82 WNW 12 19 30.03 1017 10 16.0934 0 0
1:15 am 01:15 Cloudy 32 -0.2 26 -3.2 80 80 WNW 12 19 30.03 1017 10 16.0934 0 0
1:35 am 01:35 Cloudy 32 0 27 -3 80 80 NW 12 19 30.03 1017 10 16.0934 0 0
1:55 am 01:55 Cloudy 32 0.2 27 -3 79 79 NW 13 20 30.06 1018 10 16.0934 0 0
2:15 am 02:15 Cloudy 32 0.1 27 -3 80 80 NW 10 17 30.06 1018 10 16.0934 0 0
2:35 am 02:35 Cloudy 32 -0.1 27 -3 81 81 NW 8 13 30.06 1018 10 16.0934 0 0
2:55 am 02:55 Cloudy 32 -0.2 27 -3 82 82 NW 9 15 30.06 1018 10 16.0934 0 0
3:15 am 03:15 Cloudy 32 -0.1 26 -3.1 80 80 WNW 10 17 30.06 1018 10 16.0934 0 0
3:35 am 03:35 Cloudy 31 -0.5 26 -3.6 80 80 NW 8 13 30.06 1018 10 16.0934 0 0
3:55 am 03:55 Partly Cloudy 30 -1.3 25 -4.1 81 81 NW 8 13 30.09 1019 10 16.0934 0 0
4:15 am 04:15 Clear 30 -1 24 -4.2 79 79 WNW 10 17 30.09 1019 10 16.0934 0 0
4:35 am 04:35 Clear 30 -0.9 24 -4.5 77 77 WNW 9 15 30.09 1019 10 16.0934 0 0
4:55 am 04:55 Partly Cloudy 30 -1.3 23 -4.8 77 77 NW 8 13 30.09 1019 10 16.0934 0 0
5:15 am 05:15 Partly Cloudy 28 -2.5 23 -5.2 82 82 NW 6 9 30.09 1019 10 16.0934 0 0
5:35 am 05:35 Clear 28 -2.4 22 -5.4 80 80 WNW 6 9 30.12 1020 10 16.0934 0 0
5:55 am 05:55 Clear 28 -2.2 22 -5.5 78 78 WNW 5 7 30.12 1020 10 16.0934 0 0
6:15 am 06:15 Partly Cloudy 28 -2.3 23 -5.1 81 81 WNW 6 9 30.12 1020 10 16.0934 0 0
6:35 am 06:35 Mostly Cloudy 29 -1.6 23 -5 78 78 WNW 7 11 30.12 1020 10 16.0934 0 0
6:55 am 06:55 Cloudy 29 -1.4 24 -4.7 79 79 WNW 7 11 30.12 1020 10 16.0934 0 0
7:15 am 07:15 Mostly Cloudy 31 -0.4 24 -4.5 74 74 WNW 8 13 30.09 1019 10 16.0934 0 0
7:35 am 07:35 Partly Cloudy 31 -0.6 23 -4.8 74 74 WNW 8 13 30.15 1021 10 16.0934 0 0
7:55 am 07:55 Sunny 31 -0.8 23 -5 74 74 WNW 7 11 30.15 1021 10 16.0934 0 0
8:15 am 08:15 Sunny 31 -0.5 23 -5 72 72 WNW 13 20 30.12 1020 10 16.0934 0 0
8:35 am 08:35 Sunny 32 0 23 -5.1 69 69 WNW 13 20 30.12 1020 10 16.0934 0 0
8:55 am 08:55 Sunny 32 0.2 22 -5.5 66 66 WNW 13 20 30.18 1022 10 16.0934 0 0
9:15 am 09:15 Sunny 33 0.7 22 -5.6 63 63 NW 13 20 30.15 1021 10 16.0934 0 0
9:35 am 09:35 Sunny 34 0.9 22 -5.5 63 63 NW 10 17 30.15 1021 10 16.0934 0 0
9:55 am 09:55 Sunny 34 1.3 22 -5.8 60 60 WNW 12 19 30.15 1021 10 16.0934 0 0
10:15 am 10:15 Sunny 35 1.9 21 -6 56 56 WNW 12 19 30.18 1022 10 16.0934 0 0
10:35 am 10:35 Sunny 36 2.2 21 -6 55 55 NW 13 20 30.18 1022 10 16.0934 0 0
10:55 am 10:55 Sunny 36 2.3 21 -5.9 55 55 WNW 13 20 30.18 1022 10 16.0934 0 0
11:15 am 11:15 Sunny 36 2.3 22 -5.6 56 56 NW 14 22 30.18 1022 10 16.0934 0 0
11:35 am 11:35 Sunny 37 2.7 22 -5.3 56 56 NW 14 22 30.18 1022 10 16.0934 0 0
11:55 am 11:55 Sunny 37 3 23 -5.1 56 56 NW 10 17 30.18 1022 10 16.0934 0 0
12:15 pm 12:15 Sunny 38 3.5 24 -4.7 55 55 NW 13 20 30.15 1021 10 16.0934 0 0
12:35 pm 12:35 Sunny 38 3.6 23 -5 54 54 NW 12 19 30.15 1021 10 16.0934 0 0
12:55 pm 12:55 Sunny 39 4 24 -4.6 54 54 NW 13 20 30.15 1021 10 16.0934 0 0
1:15 pm 13:15 Sunny 40 4.2 24 -4.3 54 54 WNW 7 11 30.15 1021 10 16.0934 0 0
1:35 pm 13:35 Sunny 40 4.5 25 -4.1 54 54 WNW 9 15 30.15 1021 10 16.0934 0 0
1:55 pm 13:55 Sunny 41 4.9 25 -3.8 54 54 NW 10 17 30.15 1021 10 16.0934 0 0
2:15 pm 14:15 Sunny 41 5.1 25 -3.7 53 53 NW 13 20 30.15 1021 10 16.0934 0 0
2:35 pm 14:35 Sunny 42 5.3 26 -3.1 55 55 NW 9 15 30.15 1021 10 16.0934 0 0
2:55 pm 14:55 Sunny 42 5.5 27 -3 55 55 WNW 8 13 30.15 1021 10 16.0934 0 0
3:15 pm 15:15 Sunny 42 5.7 27 -3 54 54 WNW 8 13 30.15 1021 10 16.0934 0 0
3:35 pm 15:35 Sunny 42 5.7 28 -2.5 56 56 WNW 8 13 30.15 1021 10 16.0934 0 0
3:55 pm 15:55 Sunny 42 5.6 28 -2.4 57 57 WNW 6 9 30.18 1022 10 16.0934 0 0
4:15 pm 16:15 Sunny 42 5.3 28 -2.2 59 59 WNW 6 9 30.18 1022 10 16.0934 0 0
4:35 pm 16:35 Sunny 40 4.7 29 -1.7 64 64 NW 5 7 30.18 1022 10 16.0934 0 0
4:55 pm 16:55 Sunny 37 3 29 -1.8 71 71 NW 5 7 30.21 1023 10 16.0934 0 0
5:15 pm 17:15 Clear 36 2.4 28 -2.5 70 70 W 3 6 30.21 1023 10 16.0934 0 0
5:35 pm 17:35 Clear 35 1.7 27 -2.6 73 73 WNW 3 6 30.21 1023 10 16.0934 0 0
5:55 pm 17:55 Clear 35 1.5 27 -2.7 74 74 W 3 6 30.21 1023 10 16.0934 0 0
6:15 pm 18:15 Clear 34 1 26 -3.3 73 73 W 5 7 30.21 1023 10 16.0934 0 0
6:35 pm 18:35 Clear 34 1.3 26 -3.6 70 70 W 3 6 30.21 1023 10 16.0934 0 0
6:55 pm 18:55 Clear 33 0.4 25 -4 73 73 WNW 3 6 30.24 1024 10 16.0934 0 0
7:15 pm 19:15 Clear 31 -0.5 24 -4.5 75 75 WNW 5 7 30.24 1024 10 16.0934 0 0
7:35 pm 19:35 Clear 33 0.6 24 -4.6 68 68 W 5 7 30.21 1023 10 16.0934 0 0
7:55 pm 19:55 Clear 32 -0.2 24 -4.6 73 73 W 3 6 30.24 1024 10 16.0934 0 0
8:15 pm 20:15 Clear 31 -0.6 23 -5.2 71 71 W 5 7 30.24 1024 10 16.0934 0 0
8:35 pm 20:35 Clear 32 0 23 -5 69 69 W 3 6 30.24 1024 10 16.0934 0 0
8:55 pm 20:55 Clear 31 -0.6 22 -5.3 71 71 W 5 7 30.27 1025 10 16.0934 0 0
9:15 pm 21:15 Clear 30 -1 22 -5.3 73 73 WNW 5 7 30.27 1025 10 16.0934 0 0
9:35 pm 21:35 Clear 29 -1.4 22 -5.3 75 75 WNW 3 6 30.27 1025 10 16.0934 0 0
9:55 pm 21:55 Clear 29 -1.4 22 -5.4 75 75 W 5 7 30.27 1025 10 16.0934 0 0
10:15 pm 22:15 Clear 28 -2 22 -5.3 78 78 WNW 5 7 30.27 1025 10 16.0934 0 0
10:35 pm 22:35 Clear 30 -1.2 22 -5.6 72 72 W 5 7 30.27 1025 10 16.0934 0 0
10:55 pm 22:55 Clear 28 -2 22 -5.8 76 76 Calm 30.27 1025 10 16.0934 0 0
11:15 pm 23:15 Clear 26 -3.3 20 -6.6 78 78 W 3 6 30.3 1026 10 16.0934 0 0
11:35 pm 23:35 Clear 29 -1.8 21 -5.9 74 74 W 3 6 30.27 1025 10 16.0934 0 0
11:55 pm 23:55 Clear 27 -2.8 20 -6.4 77 77 W 3 6 30.33 1027 10 16.0934 0 0

Powered by AerisWeather